Location: Anola
(49.8851°N, 96.6375°W)
Time: 03:27:12
(UTC-06:00)

OTV 5 (USA 277) - Visible Passes

Search period start: 23 January 2018 00:00
Search period end: 02 February 2018 00:00
Orbit: 404 x 417 km, 43.0° (Epoch: 07 September)

Date Brightness Start Highest point End Pass type
(mag) Time Alt. Az. Time Alt. Az. Time Alt. Az.
24 Jan ? 19:11:55 10° SSW 19:13:29 15° S 19:13:29 15° S visible
25 Jan ? 18:21:40 10° S 18:23:09 12° SSE 18:24:37 10° SE visible
25 Jan ? 19:56:59 10° SW 19:57:40 14° SW 19:57:40 14° SW visible
26 Jan ? 19:06:11 10° SW 19:08:50 21° S 19:09:03 21° SSE visible
27 Jan ? 18:15:29 10° SSW 18:17:56 19° SSE 18:20:22 10° ESE visible
27 Jan ? 19:51:49 10° WSW 19:53:11 18° SW 19:53:11 18° SW visible
28 Jan ? 19:00:54 10° SW 19:03:44 25° S 19:04:34 22° SSE visible
29 Jan ? 18:10:01 10° SW 18:12:47 24° S 18:15:34 10° ESE visible
29 Jan ? 19:46:52 10° WSW 19:48:43 20° SSW 19:48:43 20° SSW visible
30 Jan ? 18:55:50 10° WSW 18:58:37 24° S 19:00:09 18° SSE visible
31 Jan ? 18:04:51 10° WSW 18:07:41 25° S 18:10:31 10° SE visible
31 Jan ? 19:42:13 10° WSW 19:44:23 16° SSW 19:44:24 16° SSW visible
01 Feb ? 18:51:00 10° WSW 18:53:29 19° SSW 18:55:57 10° SSE visible
